Weather in Shubra El-Kheima

Egypt     30°12′10″N   31°23′47″E
temp.,
°C
wind,
m/s
gust,
m/s
humid.,
%
clouds,
%
prec.,
mm/h
press.,
hPa
HPBL,
m
14 june, mon
mon1423:00+22n57600 0.0 1013414
02:00+20nnw34730 0.0 1012136
05:00+19ne12800 0.0 101227
08:00+23n23580 0.0 1013706
11:00+29nw35280 0.0 10121918
14:00+34nw56180 0.0 10102903
17:00+33nnw86200 0.0 10092972
20:00+26n68410 0.0 1012590
15 june, tue
tue1523:00+23n35610 0.0 1013277
02:00+21n23750 0.0 101369
05:00+19ne11830 0.0 101328
08:00+23nne12610 0.0 1013689
11:00+29nw23330 0.0 10121544
14:00+33nw35220 0.0 10102545
17:00+34n872430 0.0 10092602
20:00+26n78490 0.0 1012745
16 june, wed
wed1623:00+23nnw57680 0.0 1013488
02:00+20nnw35730 0.0 1013201
05:00+19nne12740 0.0 101433
08:00+23nne24620 0.0 1014688
11:00+30n36330 0.0 10131643
14:00+35nnw67200 0.0 10112905
17:00+33nnw108230 0.0 10122018
20:00+25n79490 0.0 1015646
17 june, thu
thu1723:00+22n56660 0.0 1016459
02:00+20nne34740 0.0 1016135
05:00+19ne34780 0.0 101667
08:00+23ne44530 0.0 1016818
11:00+29nne45270 0.0 10151555
14:00+34n55170 0.0 10132186
17:00+32n108270 0.0 10132051
20:00+26nne710440 0.0 1016670
18 june, fri
fri1823:00+22nne47660 0.0 1016372
02:00+21n35790 0.0 1015152
05:00+19n34870 0.0 101495
08:00+24nne46600 0.0 1014725
11:00+31nne56290 0.0 10131591
14:00+36n77170 0.0 10102306
17:00+34n108200 0.0 10102185
20:00+27n710390 0.0 1013421